VK4AB-13 Weather Reports


time (UTC)temp
C
wind
direction
speed
KPH
gust
KPH
rain 1hr
cm
rain 24hr
cm
rain mn
cm
humidity
%
barometer
mb
20260503054851 26 99 4.8 16.1 0.00 0.03 0.00 58 1018.0
20260503054351 26 53 4.8 16.1 0.00 0.03 0.00 57 1017.9
20260503053851 26 55 4.8 16.1 0.00 0.20 0.00 56 1017.8
20260503053351 26 63 4.8 9.7 0.00 0.20 0.00 56 1017.8
20260503052851 26 126 6.4 12.9 0.00 0.20 0.00 55 1017.8
20260503052442 26 82 6.4 19.3 0.00 0.20 0.00 56 1017.8
20260503052351 26 82 6.4 19.3 0.00 0.20 0.00 56 1017.8
20260503051851 26 90 6.4 14.5 0.00 0.20 0.00 57 1017.7
20260503051642 26 355 6.4 19.3 0.00 0.20 0.00 58 1017.7
20260503051351 26 355 6.4 19.3 0.00 0.20 0.00 58 1017.7
20260503050851 26 73 6.4 19.3 0.00 0.20 0.00 57 1017.7
20260503050834 26 76 6.4 16.1 0.00 0.20 0.00 55 1017.8
20260503050351 26 76 6.4 16.1 0.00 0.20 0.00 55 1017.8
20260503045851 26 69 6.4 14.5 0.00 0.20 0.00 56 1017.8
20260503045351 26 20 8.0 14.5 0.00 0.20 0.00 56 1017.7
20260503044851 26 64 6.4 14.5 0.00 0.20 0.00 55 1017.6
20260503044351 26 119 6.4 16.1 0.00 0.20 0.00 55 1017.7
20260503043851 26 123 8.0 12.9 0.00 0.20 0.00 54 1017.8
20260503043846 26 83 11.3 17.7 0.00 0.20 0.00 54 1017.8
20260503043351 26 83 11.3 17.7 0.00 0.20 0.00 54 1017.8
20260503042851 27 102 8.0 19.3 0.00 0.20 0.00 53 1017.6
20260503042351 27 109 4.8 12.9 0.00 0.20 0.00 53 1017.8
20260503041851 27 65 6.4 11.3 0.00 0.20 0.00 51 1017.8
20260503041351 27 116 6.4 12.9 0.00 0.20 0.00 50 1017.8
20260503040851 27 68 6.4 14.5 0.00 0.20 0.00 50 1017.8
20260503040351 27 70 6.4 14.5 0.00 0.20 0.00 52 1017.8
20260503035851 27 42 6.4 24.1 0.00 0.20 0.00 52 1017.8
20260503035351 27 57 4.8 11.3 0.00 0.20 0.00 54 1017.8
20260503034851 27 126 8.0 16.1 0.00 0.20 0.00 54 1018.0
20260503034440 26 98 8.0 17.7 0.00 0.20 0.00 55 1018.0
20260503034351 26 98 8.0 17.7 0.00 0.20 0.00 55 1018.0
20260503033851 26 149 8.0 17.7 0.00 0.20 0.00 55 1018.0
20260503033631 26 130 8.0 16.1 0.00 0.20 0.00 56 1018.0
20260503033351 26 130 8.0 16.1 0.00 0.20 0.00 56 1018.0
20260503032933 27 115 8.0 20.9 0.00 0.20 0.00 55 1018.0
20260503032851 26 62 9.7 20.9 0.00 0.20 0.00 55 1018.1
20260503032351 27 115 8.0 20.9 0.00 0.20 0.00 55 1018.0
20260503031851 27 103 8.0 17.7 0.00 0.20 0.00 55 1018.0
20260503031351 26 32 4.8 14.5 0.00 0.20 0.00 55 1018.1
20260503030851 26 61 4.8 16.1 0.00 0.20 0.00 56 1018.2
20260503030351 26 119 4.8 12.9 0.00 0.20 0.00 57 1018.3
20260503025941 26 105 4.8 9.7 0.00 0.20 0.00 58 1018.3
20260503025851 26 105 4.8 9.7 0.00 0.20 0.00 58 1018.3
20260503025351 27 126 6.4 14.5 0.00 0.20 0.00 59 1018.4
20260503024851 27 146 4.8 11.3 0.00 0.20 0.00 57 1018.4
20260503024351 27 41 4.8 14.5 0.00 0.20 0.00 58 1018.5
20260503023851 27 108 4.8 16.1 0.00 0.20 0.00 57 1018.6
20260503023351 27 113 4.8 12.9 0.00 0.20 0.00 60 1018.7
20260503023236 26 140 6.4 11.3 0.00 0.20 0.00 58 1018.7
20260503022851 26 140 6.4 11.3 0.00 0.20 0.00 58 1018.7
20260503022351 26 59 6.4 12.9 0.00 0.20 0.00 60 1018.8
20260503021851 26 74 6.4 16.1 0.00 0.20 0.00 61 1018.9
20260503021351 26 112 6.4 16.1 0.00 0.20 0.00 61 1019.0
20260503020851 25 71 6.4 12.9 0.00 0.20 0.00 61 1019.1
20260503020351 25 74 4.8 11.3 0.00 0.20 0.00 63 1019.3
20260503015955 25 111 4.8 11.3 0.00 0.20 0.00 63 1019.3
20260503015851 25 111 4.8 11.3 0.00 0.20 0.00 63 1019.3
20260503015351 25 65 6.4 19.3 0.00 0.20 0.00 62 1019.5
20260503014940 25 130 4.8 14.5 0.00 0.20 0.00 63 1019.6
20260503014851 25 130 4.8 14.5 0.00 0.20 0.00 63 1019.6
20260503014351 25 87 4.8 9.7 0.00 0.20 0.00 64 1019.6
20260503014132 25 85 6.4 17.7 0.00 0.23 0.00 64 1019.7
20260503013851 25 85 6.4 17.7 0.00 0.23 0.00 64 1019.7
20260503013351 25 160 4.8 14.5 0.00 0.23 0.00 64 1019.7
20260503012851 25 127 4.8 11.3 0.00 0.23 0.00 64 1019.9
20260503012351 25 113 4.8 9.7 0.00 0.23 0.00 66 1020.1
20260503011851 24 117 6.4 14.5 0.00 0.23 0.00 67 1020.1
20260503011433 24 119 6.4 12.9 0.00 0.23 0.00 68 1020.2
20260503011351 24 119 6.4 12.9 0.00 0.23 0.00 68 1020.2
20260503010851 24 169 6.4 14.5 0.00 0.23 0.00 67 1020.3
20260503010351 24 143 6.4 14.5 0.00 0.23 0.00 66 1020.4
20260503005851 25 121 6.4 16.1 0.00 0.23 0.00 66 1020.4
20260503005351 25 110 6.4 12.9 0.00 0.23 0.00 66 1020.5
20260503004851 25 110 4.8 11.3 0.00 0.23 0.00 65 1020.6
20260503004351 25 145 3.2 11.3 0.00 0.23 0.00 65 1020.7
20260503003851 25 124 3.2 8.0 0.00 0.23 0.00 66 1020.7
20260503003641 26 106 3.2 14.5 0.00 0.23 0.00 65 1020.8
20260503003351 25 44 4.8 11.3 0.00 0.23 0.00 65 1020.8
20260503002851 26 106 3.2 14.5 0.00 0.23 0.00 65 1020.8
20260503002351 26 191 3.2 12.9 0.00 0.23 0.00 65 1020.9
20260503001851 25 163 3.2 9.7 0.00 0.23 0.00 65 1020.9
20260503001351 25 82 3.2 9.7 0.00 0.23 0.00 65 1021.0
20260503000851 25 177 1.6 4.8 0.00 0.23 0.00 67 1021.1
20260503000351 25 176 1.6 4.8 0.00 0.23 0.00 66 1021.2
20260502235851 25 178 1.6 4.8 0.00 0.23 0.00 67 1021.2
20260502235351 24 179 1.6 4.8 0.00 0.23 0.00 67 1021.2
20260502234851 24 184 1.6 3.2 0.00 0.23 0.00 68 1021.2
20260502234351 24 184 1.6 4.8 0.00 0.23 0.00 69 1021.2
20260502233851 23 184 0.0 4.8 0.00 0.23 0.00 70 1021.3
20260502233351 23 184 0.0 0.0 0.00 0.23 0.00 71 1021.4
20260502232851 23 184 0.0 0.0 0.00 0.23 0.00 71 1021.5
20260502232536 23 184 0.0 0.0 0.00 0.23 0.00 74 1021.4
20260502232351 23 184 0.0 0.0 0.00 0.23 0.00 74 1021.4
20260502231851 22 184 0.0 0.0 0.00 0.23 0.00 75 1021.4
20260502231351 22 184 0.0 0.0 0.00 0.23 0.00 77 1021.5
20260502230851 21 184 0.0 0.0 0.00 0.23 0.00 77 1021.6
20260502230351 21 184 0.0 0.0 0.00 0.23 0.00 79 1021.5
20260502225932 21 184 1.6 8.0 0.00 0.23 0.00 80 1021.5
20260502225851 21 184 1.6 4.8 0.00 0.23 0.00 79 1021.6
20260502225351 21 184 1.6 8.0 0.00 0.23 0.00 80 1021.5
20260502224851 20 150 0.0 1.6 0.00 0.23 0.00 82 1021.4
20260502224351 20 150 0.0 4.8 0.00 0.23 0.00 82 1021.4
20260502223851 20 150 0.0 1.6 0.00 0.23 0.00 83 1021.4
20260502223351 19 150 0.0 0.0 0.00 0.23 0.00 87 1021.3
20260502222851 18 150 0.0 1.6 0.00 0.23 0.00 88 1021.3
20260502222351 18 150 1.6 4.8 0.00 0.23 0.00 90 1021.4
20260502221851 18 150 1.6 4.8 0.00 0.23 0.00 91 1021.4
20260502221351 17 150 0.0 4.8 0.00 0.23 0.00 92 1021.4
20260502220851 17 150 0.0 3.2 0.00 0.23 0.00 93 1021.2
20260502220351 17 150 0.0 3.2 0.00 0.23 0.00 93 1021.2
20260502215851 17 150 1.6 3.2 0.00 0.23 0.00 94 1021.0
20260502215351 17 150 1.6 4.8 0.00 0.23 0.00 95 1021.0
20260502214852 17 150 0.0 3.2 0.00 0.23 0.00 95 1020.9
20260502214351 16 150 0.0 3.2 0.00 0.23 0.00 95 1020.9
20260502213851 16 150 0.0 1.6 0.00 0.23 0.00 95 1020.8
20260502213352 16 150 0.0 3.2 0.00 0.23 0.00 95 1020.9
20260502212852 16 150 0.0 1.6 0.00 0.23 0.00 95 1020.9
20260502212351 16 150 0.0 0.0 0.00 0.23 0.00 95 1020.9
20260502211851 16 150 0.0 0.0 0.00 0.23 0.00 95 1020.8
20260502211352 16 150 0.0 0.0 0.00 0.23 0.00 95 1020.7
20260502210852 16 150 0.0 0.0 0.00 0.23 0.00 95 1020.8
20260502210352 15 150 0.0 0.0 0.00 0.23 0.00 95 1020.8
20260502205852 15 150 0.0 0.0 0.00 0.23 0.00 95 1020.8
20260502205352 15 150 0.0 0.0 0.00 0.23 0.00 95 1020.8
20260502204852 15 150 0.0 0.0 0.00 0.23 0.00 94 1020.6
20260502204537 15 150 0.0 0.0 0.00 0.23 0.00 94 1020.7
20260502204352 15 150 0.0 0.0 0.00 0.23 0.00 94 1020.7
20260502204141 15 150 0.0 0.0 0.00 0.25 0.00 94 1020.5
20260502203852 15 150 0.0 0.0 0.00 0.25 0.00 94 1020.5
20260502203518 15 150 0.0 0.0 0.00 0.25 0.00 94 1020.4
20260502203431 15 150 0.0 0.0 0.00 0.25 0.00 94 1020.4
20260502203352 15 150 0.0 0.0 0.00 0.25 0.00 94 1020.4
20260502202852 15 150 0.0 0.0 0.00 0.25 0.00 94 1020.4
20260502202352 15 150 0.0 0.0 0.00 0.25 0.00 94 1020.4
20260502201852 15 150 0.0 0.0 0.00 0.25 0.00 94 1020.4
20260502201352 15 150 0.0 0.0 0.00 0.25 0.00 94 1020.4
20260502200852 15 150 0.0 0.0 0.00 0.25 0.00 94 1020.4
20260502200352 15 150 0.0 0.0 0.00 0.25 0.00 94 1020.3
20260502195852 15 150 0.0 0.0 0.00 0.25 0.00 94 1020.4
20260502195352 15 150 0.0 0.0 0.00 0.25 0.00 94 1020.4
20260502194852 15 150 0.0 3.2 0.00 0.25 0.00 94 1020.2
20260502194352 15 150 0.0 0.0 0.00 0.25 0.00 94 1020.2
20260502193852 15 150 0.0 0.0 0.00 0.25 0.00 94 1020.2
20260502193352 15 150 0.0 0.0 0.00 0.25 0.00 94 1020.1
20260502192852 15 150 0.0 0.0 0.00 0.25 0.00 94 1020.0
20260502192352 15 150 0.0 4.8 0.00 0.25 0.00 94 1020.0
20260502191852 15 150 0.0 3.2 0.00 0.25 0.00 94 1020.1
20260502191352 15 150 0.0 0.0 0.00 0.25 0.00 94 1020.1
20260502190852 15 150 0.0 0.0 0.00 0.25 0.00 94 1020.1
20260502190352 16 150 0.0 0.0 0.00 0.25 0.00 93 1020.0
20260502185852 16 150 0.0 0.0 0.00 0.25 0.00 93 1020.1
20260502185352 16 150 0.0 0.0 0.00 0.25 0.00 93 1020.0
20260502185036 16 150 0.0 0.0 0.00 0.25 0.00 93 1019.9
20260502184852 16 150 0.0 0.0 0.00 0.25 0.00 94 1019.9
20260502184352 16 150 0.0 0.0 0.00 0.25 0.00 94 1019.9
20260502183852 16 150 0.0 0.0 0.00 0.25 0.00 93 1019.9
20260502183352 16 150 0.0 0.0 0.00 0.25 0.00 93 1019.9
20260502182941 16 150 0.0 0.0 0.00 0.25 0.00 93 1019.9
20260502182852 16 150 0.0 0.0 0.00 0.25 0.00 93 1019.9
20260502182352 16 150 0.0 0.0 0.00 0.25 0.00 93 1019.8
20260502182041 16 150 0.0 0.0 0.00 0.25 0.00 93 1019.9
20260502181852 16 150 0.0 0.0 0.00 0.25 0.00 93 1019.8
20260502181352 16 150 0.0 0.0 0.00 0.25 0.00 93 1019.9
20260502180852 16 150 0.0 0.0 0.00 0.25 0.00 93 1020.0
20260502180352 16 150 0.0 0.0 0.00 0.25 0.00 93 1019.9
20260502170352 16 149 0.0 4.8 0.00 0.25 0.00 93 1020.0
20260502163852 17 146 0.0 0.0 0.00 0.25 0.00 93 1020.3
20260502163352 17 146 0.0 0.0 0.00 0.25 0.00 93 1020.4
20260502162852 17 146 0.0 0.0 0.00 0.25 0.00 92 1020.4
20260502162352 17 146 0.0 0.0 0.00 0.25 0.00 92 1020.5
20260502161852 17 146 0.0 0.0 0.00 0.25 0.00 92 1020.5
20260502161352 17 146 0.0 0.0 0.00 0.25 0.00 92 1020.3
20260502160852 17 146 0.0 0.0 0.00 0.25 0.00 92 1020.4
20260502160352 17 146 0.0 0.0 0.00 0.25 0.00 92 1020.4
20260502151852 17 146 0.0 1.6 0.00 0.25 0.00 92 1020.8
20260502151352 17 146 0.0 4.8 0.00 0.25 0.00 92 1020.8
20260502150852 18 146 0.0 0.0 0.00 0.25 0.00 92 1020.8
20260502150352 18 146 0.0 0.0 0.00 0.25 0.00 93 1020.8
20260502130352 18 146 0.0 0.0 0.00 0.30 0.30 92 1020.8
20260502123352 19 146 0.0 0.0 0.00 0.33 0.30 92 1021.2
20260502122852 19 146 0.0 0.0 0.00 0.33 0.30 92 1021.2
20260502122352 19 146 0.0 0.0 0.00 0.33 0.30 92 1021.2
20260502121852 19 146 0.0 0.0 0.00 0.33 0.30 92 1021.1
20260502121352 19 146 0.0 0.0 0.00 0.33 0.30 92 1021.2
20260502120852 19 146 0.0 0.0 0.00 0.33 0.30 92 1021.3
20260502120352 19 146 0.0 0.0 0.00 0.33 0.30 92 1021.3
20260502115852 19 146 0.0 0.0 0.00 0.33 0.30 92 1021.5
20260502115352 20 146 0.0 0.0 0.00 0.33 0.30 92 1021.5
20260502114852 20 146 0.0 0.0 0.00 0.33 0.30 92 1021.4
20260502114352 20 146 0.0 0.0 0.00 0.33 0.30 92 1021.4
20260502113852 20 146 0.0 0.0 0.00 0.33 0.30 92 1021.3
20260502113353 20 146 0.0 0.0 0.00 0.33 0.30 92 1021.3
20260502112852 20 146 0.0 0.0 0.00 0.33 0.30 91 1021.3
20260502112352 20 146 0.0 0.0 0.00 0.33 0.30 91 1021.2
20260502111852 20 146 0.0 0.0 0.00 0.33 0.30 91 1021.2
20260502111352 20 146 0.0 0.0 0.00 0.33 0.30 91 1021.1
20260502110852 20 146 0.0 0.0 0.00 0.33 0.30 91 1021.2
20260502110352 20 146 0.0 0.0 0.00 0.33 0.30 91 1021.1
20260502105852 20 146 0.0 0.0 0.00 0.33 0.30 91 1021.3
20260502105352 20 146 0.0 0.0 0.03 0.33 0.30 91 1021.3
20260502104852 20 146 0.0 0.0 0.03 0.33 0.30 90 1021.2
20260502104352 20 146 0.0 0.0 0.03 0.33 0.30 90 1021.1
20260502103852 20 146 0.0 0.0 0.03 0.33 0.30 90 1021.1
20260502103352 20 146 0.0 0.0 0.03 0.33 0.30 90 1021.1
20260502102852 20 146 0.0 0.0 0.03 0.33 0.30 90 1021.1
20260502102352 20 146 0.0 0.0 0.03 0.33 0.30 90 1021.1
20260502101852 20 146 0.0 0.0 0.03 0.33 0.30 90 1021.2
20260502101352 20 146 0.0 1.6 0.03 0.33 0.30 90 1021.1
20260502100852 20 146 3.2 4.8 0.03 0.33 0.30 90 1021.0
20260502100353 20 146 1.6 11.3 0.03 0.33 0.30 90 1021.1
20260502091353 20 103 4.8 16.1 0.00 0.33 0.28 88 1020.4
20260502090853 20 113 3.2 12.9 0.00 0.33 0.28 89 1020.5
20260502090353 20 126 1.6 8.0 0.00 0.33 0.28 90 1020.5
20260502071353 21 103 0.0 0.0 0.18 0.33 0.28 88 1019.6
20260502070853 21 103 0.0 0.0 0.18 0.33 0.28 88 1019.6
20260502070353 21 103 1.6 1.6 0.18 0.33 0.28 87 1019.5
20260502065853 21 103 3.2 4.8 0.18 0.33 0.28 87 1019.5
20260502065353 21 103 3.2 9.7 0.18 0.33 0.28 87 1019.4
20260502064853 21 92 1.6 6.4 0.18 0.33 0.28 86 1019.4
20260502064353 21 86 0.0 3.2 0.18 0.33 0.28 85 1019.5
20260502063853 22 87 0.0 4.8 0.18 0.33 0.28 84 1019.5
20260502063353 22 87 0.0 1.6 0.18 0.33 0.28 83 1019.3